RH
58 53 51 54 50 46 43 39 38 43 49 60 65 72 70 63 63 58 52 54 55 64 71 82 82 79 80 88 76 76 60 61 85 59 49 39 36 41 41 33 26 20 22 24 22
46 46 46 41 40 40 39 36 35 40 51 59 57 49 46 47 47 44 38 36 36 45 60 74 75 73 79 88 85 80 69 81 73 64 55 34 34 39 40 34 29 20 19 23 24
46 43 39 35 33 34 36 35 38 40 46 50 49 43 40 38 32 29 28 28 28 30 51 76 77 79 86 84 92 84 75 70 66 59 43 34 33 38 42 44 33 25 18 20 21
43 43 41 38 35 36 43 44 40 38 38 43 45 44 39 33 27 28 30 29 27 29 38 44 52 78 83 87 83 69 64 60 57 46 32 30 29 19 24 34 38 31 18 17 21
36 36 35 35 37 36 38 40 47 46 38 41 45 44 38 33 32 33 34 34 29 28 29 27 60 77 74 70 56 50 50 49 48 35 26 16 10 9 16 22 30 25 16 18 20
35 32 30 30 31 36 40 40 34 41 41 38 40 37 38 40 41 40 35 28 26 29 25 37 74 73 62 50 45 48 42 44 34 26 12 6 5 6 15 24 23 20 18 17 18
35 32 28 24 23 24 28 30 24 21 26 32 33 26 24 25 23 19 18 22 24 26 30 52 66 58 46 45 45 45 43 35 25 12 6 4 4 5 12 12 14 16 19 14 16
22 22 18 16 17 21 22 24 23 19 16 16 18 21 22 22 20 18 20 21 26 42 44 47 56 50 44 42 43 49 34 20 15 5 3 3 4 5 8 14 16 14 18 14 15
22 21 18 16 14 16 17 19 19 17 15 15 14 16 20 19 17 18 21 28 33 38 47 56 51 47 46 39 48 42 20 16 6 3 2 2 3 6 10 14 19 19 19 16 19
13 15 16 15 13 14 14 14 14 15 15 15 17 19 21 21 20 20 23 33 44 49 60 54 50 49 41 40 47 28 17 10 4 2 2 2 3 5 9 15 15 27 24 20 22
14 13 14 13 13 14 16 16 16 16 16 20 21 22 20 20 20 22 32 40 46 62 59 52 51 45 37 46 39 18 14 7 3 2 2 2 2 4 7 9 11 18 27 24 27
18 19 19 17 15 16 19 20 21 21 22 24 24 21 20 19 22 27 33 42 62 62 52 52 49 38 45 55 31 16 11 6 3 3 3 3 3 3 7 11 14 21 28 36 38
18 23 26 21 19 22 22 23 23 24 24 23 21 20 21 22 27 29 37 47 60 52 51 48 40 36 44 51 34 15 8 6 4 4 4 3 3 3 7 13 22 30 35 38 37
15 18 26 27 22 25 24 23 22 22 22 22 20 20 21 24 25 27 39 48 56 57 50 50 37 41 42 46 28 14 7 5 4 6 5 5 4 3 6 12 21 27 33 29 28
16 17 24 28 27 29 25 25 25 22 21 20 18 18 21 24 27 32 45 61 64 49 48 45 40 40 44 40 23 11 8 5 5 7 6 6 5 3 4 7 12 21 30 33 33
16 17 24 29 29 28 25 27 24 20 19 18 17 26 30 32 35 50 73 63 58 55 51 48 42 46 45 38 20 10 8 5 6 7 7 6 8 3 3 6 9 12 20 28 37
13 18 24 28 29 27 28 23 18 18 18 17 25 35 36 51 66 90 72 57 49 48 54 48 58 49 44 38 17 9 8 6 7 8 7 6 9 3 3 6 8 11 19 28 36
14 18 25 30 29 29 22 20 18 17 19 29 38 48 67 92 91 91 64 54 47 49 52 52 60 42 43 37 16 9 8 6 8 8 7 7 8 5 3 5 9 10 13 22 34
17 23 31 30 29 24 22 20 19 18 27 41 46 77 99 87 87 76 58 49 50 54 49 54 48 41 41 36 16 9 8 6 8 9 8 7 8 7 4 4 7 9 12 16 27
25 33 33 31 25 24 22 20 19 23 36 48 72 94 97 80 65 60 50 58 60 49 58 53 47 39 36 31 17 8 8 6 8 9 7 7 8 8 7 3 5 8 11 13 17
28 32 31 27 24 21 21 21 25 32 43 60 82 88 84 74 66 64 65 65 56 58 59 47 56 46 40 30 19 8 8 6 8 9 8 8 8 8 5 5 3 6 9 12 12
29 30 28 24 19 19 20 21 29 38 61 82 82 78 73 67 70 77 69 62 65 64 59 55 56 50 44 31 18 9 6 6 7 9 7 7 8 4 5 4 3 3 7 10 11
23 24 22 18 16 16 25 31 42 66 90 75 75 75 76 66 71 81 77 74 66 62 57 55 50 44 38 27 18 9 6 4 6 8 6 6 7 4 5 5 5 3 5 8 9
16 16 18 19 18 27 36 59 68 74 82 72 77 82 76 84 84 80 76 70 64 63 61 51 40 39 33 21 15 9 6 4 6 9 5 4 7 4 4 5 6 5 4 7 8
14 15 18 16 22 32 41 67 70 77 94 85 96 97 88 92 89 88 77 70 66 68 63 53 41 32 30 18 14 9 6 4 6 6 4 4 5 4 4 5 6 5 4 6 8
18 23 28 37 41 58 63 75 86 99 100 100 100 100 91 100 96 85 77 72 76 78 63 53 42 28 27 16 14 9 6 4 6 4 3 3 4 5 4 5 6 5 4 5 8
54 56 51 82 78 86 88 99 90 96 100 100 100 100 100 95 94 87 74 78 75 78 68 54 36 33 20 14 13 9 7 5 6 4 3 3 4 5 4 4 5 5 5 4 6
Wind_Speed
22 24 24 24 27 28 28 30 32 31 33 33 33 33 37 40 43 49 47 48 51 53 55 54 56 57 60 65 70 73 78 80 79 89 90 93 96 92 91 84 82 77 63 72 80
27 28 27 29 30 32 34 36 36 36 35 34 34 35 39 41 44 49 51 53 55 57 58 58 61 62 66 73 79 82 85 85 92 97 101 102 104 106 95 89 78 81 75 72 80
32 32 33 33 32 34 36 38 38 38 39 38 37 39 42 44 46 51 53 58 60 61 62 65 68 70 75 82 83 86 91 94 99 106 112 112 107 104 91 79 77 82 84 79 86
35 36 38 38 39 39 38 41 41 42 42 42 42 44 47 49 51 54 57 61 63 64 65 69 72 75 77 82 87 94 98 105 109 116 120 111 101 87 85 76 82 84 87 85 90
38 38 40 41 43 44 43 42 43 45 46 45 46 50 54 54 58 61 65 68 68 70 72 76 76 78 84 91 94 95 105 108 117 121 110 96 86 82 75 79 84 88 95 83 92
43 43 44 45 46 46 47 47 46 48 50 48 51 53 58 61 65 68 70 73 72 74 78 79 81 84 90 94 101 105 112 120 125 114 93 87 79 79 77 88 86 94 99 94 97
48 48 48 47 46 47 48 49 49 52 54 54 57 59 62 64 69 72 74 75 75 77 79 81 85 90 95 99 107 118 123 127 118 98 86 76 69 73 88 92 95 101 102 106 96
49 50 50 50 50 49 49 51 54 55 56 58 61 64 65 68 72 72 73 75 73 75 80 84 88 95 99 105 114 122 123 117 101 89 75 66 61 71 79 87 92 101 104 111 101
56 55 55 54 53 50 50 52 55 58 59 60 63 64 66 70 72 72 71 70 72 76 81 85 91 98 102 110 117 118 115 104 90 80 66 55 55 66 76 81 88 99 106 107 99
57 56 55 55 54 53 54 55 57 58 59 59 62 64 66 68 70 69 67 70 73 78 82 88 95 100 108 113 119 115 104 93 82 68 56 47 54 62 73 79 85 97 107 108 103
59 56 55 55 52 51 51 51 52 54 56 58 59 58 62 67 67 64 66 70 74 79 86 91 98 104 107 116 117 110 95 83 73 60 49 41 52 59 68 75 84 95 104 107 106
57 56 54 52 50 48 47 49 49 49 47 50 55 60 65 65 61 63 67 71 75 80 87 93 102 103 110 122 117 103 87 77 65 54 43 40 50 53 63 69 80 91 99 106 107
57 55 52 52 50 45 43 43 44 46 47 54 58 62 63 60 61 63 67 72 77 83 88 96 103 106 115 123 109 96 81 71 56 50 40 37 46 52 61 69 81 91 99 106 107
59 56 52 49 47 42 43 45 47 50 49 58 60 61 62 62 62 64 69 73 79 85 90 100 107 109 121 111 100 92 75 64 49 45 40 33 45 51 58 68 78 91 100 106 110
49 52 52 48 45 42 44 47 49 51 56 58 60 64 66 64 64 66 70 75 82 88 93 103 109 119 122 107 95 88 73 60 45 39 39 30 42 50 57 65 74 85 98 104 110
47 45 47 45 45 43 45 49 51 54 57 60 63 66 62 60 63 67 72 77 82 90 99 106 114 122 125 108 93 85 71 55 43 36 34 33 40 52 56 63 71 81 91 102 108
43 41 43 41 42 42 46 46 50 54 59 62 65 62 57 59 65 70 77 81 86 92 102 107 117 123 123 108 92 82 69 53 39 32 32 37 41 55 53 64 73 79 90 98 106
35 38 40 38 39 41 44 47 51 56 60 63 62 56 58 62 67 74 79 85 93 99 103 109 120 127 118 106 91 80 67 52 38 30 30 40 44 48 56 67 75 80 88 96 103
33 37 36 38 40 43 48 51 55 57 60 62 55 54 61 65 71 76 81 88 97 102 107 112 121 126 116 106 90 80 68 54 39 33 32 40 42 49 57 65 75 81 86 93 101
34 36 36 40 43 47 51 54 58 57 60 55 53 58 64 69 74 81 86 93 99 104 111 116 121 125 121 106 92 82 67 54 39 36 35 39 42 49 57 65 76 81 87 92 99
37 38 40 43 47 50 53 55 56 59 55 55 58 62 68 73 79 86 92 97 102 108 113 119 124 131 125 107 92 85 68 54 40 37 41 41 43 56 60 63 69 80 87 92 96
37 41 44 47 49 51 53 54 57 59 53 57 62 67 73 77 82 90 97 102 107 113 117 124 128 136 121 104 91 87 68 54 41 41 46 40 57 50 54 57 61 73 85 91 95
37 43 48 49 50 52 52 54 56 55 57 61 67 71 77 83 87 92 98 105 111 117 122 127 133 135 116 99 90 89 71 55 43 43 45 46 48 51 44 54 58 67 80 88 93
40 41 47 49 50 50 52 54 55 54 61 65 71 75 80 85 91 95 100 106 113 118 125 129 135 130 116 95 88 88 72 56 44 41 44 46 42 47 40 51 57 63 73 82 89
41 41 45 46 49 53 53 52 55 57 65 70 74 79 83 88 93 99 104 110 117 120 126 132 137 125 113 93 90 89 75 59 45 41 41 47 34 44 39 47 56 61 65 76 85
40 41 43 51 54 52 50 52 58 64 69 71 76 81 87 93 98 102 106 111 118 124 128 133 135 121 108 90 89 86 75 60 48 42 42 41 32 42 39 41 52 56 60 71 81
47 46 45 46 51 53 54 61 62 67 71 76 78 82 90 95 100 105 112 117 122 127 131 136 124 121 105 86 87 83 72 59 49 44 44 39 31 37 37 35 47 52 55 65 75
Wind_Direction
296 298 299 301 302 305 304 306 306 307 309 307 311 309 308 311 311 309 311 311 309 309 308 307 304 303 302 303 303 303 304 304 299 299 298 295 292 285 279 276 269 252 243 238 237
297 298 297 298 299 301 302 304 304 305 305 305 305 305 304 308 308 308 311 309 310 308 308 305 302 299 300 301 302 303 304 303 298 296 292 292 291 287 279 274 270 255 239 237 234
287 288 293 296 298 301 300 298 298 299 300 301 301 301 302 304 304 305 306 308 309 310 307 302 300 301 300 301 303 303 304 300 297 295 292 291 290 282 273 264 260 252 241 231 232
284 286 288 290 294 296 297 296 294 295 297 298 301 299 300 301 302 302 304 306 308 307 305 303 303 302 300 301 301 302 301 299 296 293 293 291 282 273 267 256 248 246 240 230 230
289 288 290 290 290 291 294 298 295 293 295 296 297 298 299 300 300 303 304 307 308 306 305 307 305 304 304 303 302 302 301 299 295 294 292 282 273 263 258 252 245 241 237 230 224
290 291 291 291 292 291 291 291 296 294 294 297 297 297 298 300 301 303 303 305 307 306 307 308 309 307 305 304 305 304 305 301 299 297 289 281 268 257 249 241 236 236 235 228 222
285 286 289 289 292 289 290 291 294 295 295 296 295 297 299 300 302 303 304 305 307 305 308 309 309 308 308 307 308 308 304 303 303 296 290 278 264 251 240 232 228 229 230 229 223
283 284 288 290 291 290 289 290 291 294 298 297 296 296 299 302 304 305 305 306 306 308 309 309 308 309 311 311 313 312 308 308 303 298 289 275 259 247 238 233 226 225 228 228 223
283 283 286 289 291 291 292 291 292 295 296 296 297 298 299 302 304 305 305 305 306 308 308 309 311 313 313 315 316 316 313 310 304 300 289 275 258 243 234 231 226 221 224 227 222
283 283 283 287 289 291 292 292 293 294 296 297 299 301 303 305 304 306 305 307 309 308 309 311 313 314 314 318 323 316 315 311 306 299 287 271 251 240 233 226 223 223 221 223 219
282 283 285 286 287 290 293 296 296 296 298 301 304 306 306 307 307 307 308 308 307 309 311 314 317 317 320 328 325 319 318 313 308 298 287 267 249 240 232 224 219 221 220 220 218
282 282 285 286 287 289 295 297 299 300 303 305 307 309 309 309 308 308 307 308 309 311 313 317 318 319 326 333 327 323 320 315 307 298 285 267 249 238 230 223 218 218 220 219 218
280 281 284 286 288 289 293 296 298 301 307 308 309 311 310 307 307 307 307 309 311 314 316 319 320 321 330 332 330 325 323 316 309 299 285 267 251 238 228 220 215 215 216 218 218
276 277 280 283 286 286 289 295 298 303 307 308 308 310 310 306 306 307 308 312 313 316 318 321 323 330 336 333 332 327 325 317 311 299 286 267 252 237 229 223 216 214 215 216 216
275 274 277 282 285 284 291 296 301 303 306 306 308 308 307 306 306 309 311 313 316 317 320 324 327 337 339 336 333 330 326 318 309 300 283 264 251 239 228 224 218 216 217 215 216
268 274 273 280 282 285 292 298 303 304 303 306 308 310 309 308 310 312 313 315 317 320 323 327 334 337 339 337 336 332 327 320 311 298 280 260 245 242 230 224 221 218 217 216 215
267 269 274 278 282 287 295 300 304 306 306 307 311 311 311 312 313 313 314 315 319 324 326 330 335 338 341 338 336 334 329 323 309 296 279 259 241 242 229 222 221 218 216 215 216
269 269 275 279 284 292 295 299 306 309 309 312 313 311 313 314 314 316 315 319 322 325 329 335 335 339 342 339 337 334 330 324 307 292 273 255 245 240 231 223 219 218 217 215 215
271 276 279 283 288 292 296 299 306 308 310 311 311 313 313 314 314 316 318 320 323 326 333 337 338 343 343 340 337 334 332 326 309 288 268 259 248 241 237 225 221 218 216 216 215
278 278 281 285 290 293 297 302 306 308 312 310 312 314 314 313 315 317 319 323 324 330 335 336 338 343 343 341 337 335 333 327 312 287 270 260 250 243 237 231 222 219 216 215 215
279 279 283 287 293 298 301 303 306 311 312 311 312 313 314 317 319 320 322 325 327 332 334 337 339 341 342 341 337 334 334 330 315 290 270 261 251 242 238 234 227 221 218 216 216
280 283 287 291 296 300 301 304 308 311 310 310 311 315 317 319 321 323 324 326 330 332 334 336 339 341 341 341 337 333 333 333 315 293 275 262 257 249 245 240 234 227 221 217 216
281 285 289 293 296 299 302 305 308 308 309 310 313 317 318 320 322 324 327 328 331 333 335 337 338 341 341 341 338 333 334 332 319 298 284 270 263 260 245 242 236 231 227 221 218
283 286 291 295 298 300 303 305 305 307 309 312 315 318 319 322 323 324 328 329 331 334 334 337 339 341 340 340 338 332 333 331 323 307 291 279 261 263 244 235 232 230 229 226 221
289 290 292 292 295 296 300 303 306 309 312 316 319 320 320 321 323 326 328 330 330 332 334 336 338 341 339 339 338 333 333 331 323 303 290 284 268 261 249 234 230 229 226 226 224
291 291 293 297 297 299 305 305 309 313 316 316 317 318 319 320 323 326 327 328 328 330 334 336 337 339 338 338 337 334 333 330 322 304 293 286 277 263 254 233 232 229 225 223 224
300 300 304 301 300 301 307 308 312 313 314 315 316 317 319 322 323 326 326 327 329 330 333 335 338 337 338 338 336 334 332 326 318 305 299 293 281 266 257 239 231 227 225 222 222